EHI
0 0 0 0 0 0 0 0 0 0 0 0 0 0 1 3 4 5 5 3 3 5 5 3 1 4 9 13 16 18 20 20 19 17 13 8 4 4 5 4 4 4 3 3
0 0 0 0 0 0 0 0 0 0 0 0 0 0 1 3 4 5 5 3 4 6 7 5 4 6 10 14 15 17 20 20 18 17 13 7 4 4 4 4 4 4 3 3
0 0 0 0 0 0 0 0 0 0 0 0 0 0 1 3 4 4 4 4 5 7 10 9 7 8 11 14 14 16 19 19 17 16 12 7 5 5 4 4 5 5 4 3
0 0 0 0 0 0 0 0 0 0 0 0 0 1 2 4 4 4 5 6 7 10 12 11 9 8 10 12 13 14 17 17 15 12 10 8 7 6 6 6 6 6 5 4
0 0 0 0 0 0 0 0 0 0 0 0 0 1 3 4 4 5 8 10 12 13 13 11 8 7 8 8 9 11 13 14 13 11 10 10 9 8 7 7 8 7 6 5
0 0 0 0 0 0 0 0 0 0 0 0 0 0 2 3 3 5 10 14 16 14 13 10 7 6 6 5 5 6 8 10 11 11 11 10 9 9 9 8 8 6 6 6
0 0 0 0 0 0 0 0 0 0 0 0 0 1 2 3 2 5 11 16 16 14 12 10 7 5 5 4 4 4 6 8 10 11 12 11 10 9 9 8 7 6 5 5
0 0 0 0 0 0 0 0 0 0 0 0 0 1 2 3 3 7 13 16 15 12 11 9 6 4 4 4 3 4 7 9 11 12 13 12 10 8 8 7 6 7 7 6
0 0 0 0 0 0 0 0 0 0 0 0 0 1 3 4 5 9 14 15 14 12 11 8 5 3 2 2 3 5 9 12 14 13 12 11 10 9 8 7 7 8 9 8
0 0 0 0 0 0 0 0 0 0 0 0 0 1 2 4 5 9 13 14 15 14 11 9 7 4 4 2 2 4 7 10 12 11 10 9 11 12 10 9 8 9 10 11
0 0 0 0 0 0 0 0 0 0 0 0 0 0 1 3 5 9 13 15 16 15 13 11 10 8 7 6 4 3 4 5 7 8 9 11 13 13 12 10 8 8 10 11
0 0 0 0 0 0 0 0 0 0 0 0 0 0 0 1 4 9 13 15 17 18 16 15 14 12 11 10 7 5 4 4 5 8 11 13 15 15 12 9 7 5 7 8
0 0 0 0 0 0 0 0 0 0 0 0 0 0 0 2 5 8 11 15 19 22 21 20 19 18 15 12 9 7 6 7 7 9 12 15 16 15 12 10 6 4 4 5
0 0 0 0 0 0 0 0 0 0 0 0 0 0 2 4 6 7 10 15 21 25 24 23 23 22 18 12 9 8 7 9 11 13 16 17 17 15 12 9 7 5 3 2
0 0 0 0 0 0 0 0 0 0 0 0 0 1 3 5 7 7 10 15 21 22 22 21 22 22 18 13 10 9 8 9 13 16 19 19 17 14 10 7 6 5 3 2
0 0 0 0 0 0 0 0 0 0 0 0 0 1 3 5 6 8 10 13 17 18 18 18 20 20 17 14 13 12 11 12 14 17 19 19 16 11 7 5 4 4 4 4
0 0 0 0 0 0 0 0 0 0 0 0 0 1 2 4 6 10 12 13 16 18 17 17 18 18 17 15 15 15 15 16 17 18 18 15 12 8 6 4 3 5 6 7
0 0 0 0 0 0 0 0 0 0 0 0 0 1 2 4 7 12 15 16 18 19 19 18 17 17 16 14 14 14 16 18 19 18 15 10 8 7 7 6 5 7 8 8
0 0 0 0 0 0 0 0 0 0 0 0 1 2 2 3 6 12 15 16 17 18 19 19 17 16 15 13 13 14 15 16 16 13 10 8 7 7 7 8 9 9 8 7
0 0 0 0 0 0 0 0 0 0 0 1 2 2 2 3 6 9 11 13 14 15 17 15 14 15 15 12 12 13 13 12 11 8 7 7 7 8 8 10 10 8 7 5
0 0 0 0 0 0 0 0 0 1 1 2 3 3 4 6 8 9 10 11 11 12 13 12 12 15 16 13 11 11 11 10 9 8 8 9 9 8 8 8 7 6 4 3
0 0 0 0 0 1 2 2 2 3 3 3 4 4 6 9 9 9 10 11 11 11 10 10 13 16 17 14 12 11 11 11 10 10 10 10 8 6 5 5 5 4 3 3
0 0 0 0 0 1 2 3 3 3 4 4 5 7 9 10 8 7 9 11 12 10 9 10 13 17 18 16 12 11 11 10 10 10 10 8 5 3 4 5 6 5 4 3
1 0 0 0 0 0 1 3 3 3 4 6 7 8 10 10 8 7 8 12 13 12 11 12 15 18 19 16 12 10 9 9 9 9 8 5 3 2 3 5 6 5 4 3
2 1 1 1 0 0 1 3 3 4 6 7 7 9 11 11 9 8 10 13 16 15 15 17 20 21 20 16 12 10 10 10 10 9 7 4 2 2 2 3 4 3 2 2
3 2 2 2 1 1 2 3 4 6 7 6 7 10 11 10 9 9 11 14 16 17 17 19 22 23 20 15 11 10 11 12 13 10 6 4 3 2 2 2 1 1 1 1
Wind_Speed
7 9 7 5 6 6 5 6 4 2 1 5 5 4 3 6 6 6 5 5 5 4 4 5 5 5 5 4 4 4 4 4 2 2 2 2 2 2 2 2 3 2 2 2
9 10 5 5 6 7 7 7 4 2 1 5 5 5 4 5 7 6 5 5 4 4 5 6 6 5 5 4 4 4 4 4 3 2 2 1 1 1 2 2 2 2 2 2
11 4 4 6 8 8 8 7 5 4 3 6 6 6 6 6 7 6 6 5 4 5 5 7 7 5 5 5 4 4 4 3 3 2 2 2 1 1 1 1 2 2 2 2
10 6 7 9 8 9 7 5 6 6 7 4 5 6 3 6 7 8 7 6 5 5 6 6 6 6 6 5 5 4 4 3 3 3 2 2 1 1 1 1 1 1 1 1
8 7 8 10 7 7 4 3 6 7 8 8 6 7 1 5 6 7 8 7 6 6 6 6 6 7 6 6 5 5 4 4 3 3 3 2 1 1 1 1 2 1 1 1
9 6 7 7 5 6 4 6 7 9 8 8 4 7 2 3 3 5 8 7 7 7 6 6 6 6 6 6 6 5 5 4 3 3 3 2 1 1 1 1 1 0 1 1
11 11 8 7 8 8 10 8 6 7 7 5 2 6 2 2 2 3 6 8 8 7 6 6 6 7 6 6 6 6 5 5 4 4 3 3 2 2 1 0 0 1 1 1
10 10 9 8 9 8 10 11 8 6 5 3 5 5 1 4 2 3 5 7 8 7 7 6 7 7 6 7 7 6 6 5 5 4 3 2 2 1 1 0 1 1 1 2
7 7 6 6 6 8 9 9 8 9 8 8 4 3 3 4 3 4 6 7 8 8 7 6 6 7 7 7 8 7 7 6 5 4 4 3 2 1 0 0 1 1 1 1
6 6 7 6 8 7 7 6 7 8 7 8 6 6 2 4 4 5 7 7 7 8 7 7 6 6 6 7 7 8 7 6 5 5 4 3 3 2 1 1 1 1 1 1
9 9 7 9 9 9 9 9 8 7 7 9 6 2 3 1 2 4 5 6 7 8 7 7 6 6 6 6 7 8 8 7 6 5 4 3 3 3 2 1 1 0 1 1
7 8 7 7 4 5 8 9 9 8 7 8 8 1 5 1 2 3 4 6 6 6 6 7 7 7 7 6 6 7 7 7 6 5 4 4 3 2 2 2 1 1 1 1
5 8 8 9 10 9 8 9 9 10 8 8 9 2 4 2 2 3 4 5 6 6 6 6 7 7 7 6 6 6 6 6 6 5 5 4 3 2 2 1 1 1 1 1
6 8 9 9 4 4 7 8 9 11 9 9 10 6 2 1 2 3 4 5 6 7 6 6 6 6 7 6 6 6 6 6 6 5 5 4 3 2 2 1 1 1 1 0
6 8 8 8 6 6 8 8 9 12 11 11 8 7 2 2 2 3 4 5 6 6 7 7 6 7 7 7 6 6 6 6 6 5 5 4 3 3 2 1 1 1 1 1
5 7 8 9 8 8 9 9 10 11 10 11 9 6 2 2 2 3 5 5 5 6 6 7 7 7 7 7 7 7 6 6 6 6 5 4 4 3 2 1 1 1 1 1
5 6 8 9 7 9 12 10 10 9 8 8 8 4 2 2 2 3 4 5 5 5 5 6 6 7 7 7 7 7 6 6 6 6 5 5 4 3 2 2 1 1 1 1
5 6 6 7 7 11 3 1 3 5 4 4 3 2 2 2 1 2 3 3 3 4 4 5 5 6 7 7 7 6 7 6 6 5 5 4 4 3 3 2 2 1 1 1
6 6 6 7 9 8 4 3 3 5 4 2 3 2 1 1 3 4 2 2 3 3 3 3 4 5 6 7 7 7 7 6 6 5 5 5 4 4 3 3 2 1 1 1
6 7 8 8 9 8 3 3 1 5 5 1 1 2 2 4 4 2 2 1 3 3 3 3 4 5 6 6 7 7 7 6 5 5 4 4 4 4 3 3 2 2 1 1
8 7 9 9 9 4 3 1 4 7 1 3 1 1 3 2 3 3 2 2 3 3 4 4 5 5 5 6 6 6 6 5 5 5 5 4 4 4 4 3 2 2 1 1
7 7 8 8 9 4 3 2 2 3 3 2 2 2 1 1 2 2 3 4 4 4 5 5 5 5 5 5 6 6 5 5 5 5 5 5 4 3 4 4 3 2 2 2
6 5 4 4 2 4 2 2 3 2 1 1 2 2 1 1 1 2 3 4 4 4 5 5 5 5 5 5 5 5 5 5 6 5 5 5 4 3 3 3 3 3 2 1
3 2 3 3 1 1 1 2 2 2 2 2 1 0 0 1 2 2 3 3 4 4 4 5 5 5 5 5 5 5 5 5 6 6 5 4 4 4 4 2 2 1 1 1
3 3 4 4 2 2 1 2 2 2 2 1 0 0 1 1 1 2 2 2 3 3 3 4 4 5 5 5 5 5 6 6 6 5 5 5 4 3 3 3 1 0 1 1
5 6 6 3 1 3 2 3 4 3 2 1 1 0 0 1 1 2 2 2 2 3 3 4 4 5 5 5 5 5 6 6 5 5 5 4 3 3 3 3 3 3 1 2
Wind_Direction
205 230 231 229 244 277 281 274 273 281 246 252 257 258 213 193 201 204 195 193 189 187 160 152 152 146 140 135 132 128 123 119 128 119 116 114 96 75 64 62 54 44 34 37
217 227 237 246 239 246 254 263 264 222 210 265 268 262 227 205 207 208 203 198 190 175 156 155 156 155 153 145 143 142 135 126 132 120 119 103 80 86 78 61 63 35 34 20
236 229 208 229 225 232 242 257 266 270 233 237 267 245 206 200 201 204 206 200 188 178 171 161 163 163 161 156 153 141 137 139 133 134 137 122 136 147 102 83 75 46 24 14
236 227 224 233 228 241 241 250 261 250 253 253 265 285 194 188 198 199 199 191 181 170 167 164 163 165 169 162 152 145 142 142 140 146 133 136 138 103 69 57 60 51 33 17
219 217 226 234 235 243 258 250 246 251 262 267 242 268 189 166 201 194 190 186 174 167 164 163 164 167 170 162 156 150 147 148 149 152 151 167 151 113 91 78 80 36 62 35
244 221 236 244 236 229 210 211 225 236 250 253 258 270 266 149 205 182 178 177 171 164 162 160 159 162 168 166 161 153 153 157 161 161 153 164 145 118 84 47 36 4 72 51
221 215 208 221 215 200 219 231 233 229 229 245 178 256 291 82 136 187 176 172 170 167 165 163 160 162 166 168 164 162 163 168 170 166 167 168 169 170 167 244 66 332 19 44
219 205 196 208 230 227 224 245 258 271 271 263 199 249 67 94 124 166 171 166 168 170 167 165 163 162 164 169 171 169 170 172 170 164 162 164 186 203 163 53 336 1 4 23
233 209 168 195 222 241 224 235 267 271 271 270 247 222 170 144 165 167 166 167 169 170 165 162 159 159 164 167 170 172 172 171 168 164 164 166 176 196 130 152 255 15 17 17
256 241 189 184 203 216 256 241 234 248 266 266 255 243 226 164 171 175 175 175 169 168 166 163 160 158 162 164 163 166 167 169 170 172 180 167 172 173 182 214 41 21 19 13
243 240 202 197 217 216 204 218 242 255 262 271 272 264 77 146 182 189 177 173 173 173 169 167 166 161 162 162 160 163 166 168 171 173 174 175 174 170 170 172 166 100 37 13
231 249 232 216 200 251 241 240 237 244 249 260 274 277 98 111 163 176 168 166 166 172 170 166 165 163 162 162 162 164 168 169 169 169 171 168 166 171 170 149 139 120 77 33
216 243 231 211 194 198 222 228 240 254 256 253 262 243 109 126 155 155 158 157 156 163 165 160 157 160 162 163 161 168 168 167 167 168 170 163 160 156 146 129 134 116 96 57
258 248 256 261 266 213 221 225 230 240 246 252 255 263 212 205 202 181 160 159 154 157 160 163 160 161 164 164 163 167 168 165 162 163 164 151 149 138 124 113 107 89 78 65
251 246 250 263 259 246 245 241 237 242 255 264 267 267 272 268 227 185 166 161 157 157 162 165 169 165 164 163 163 167 164 161 160 158 156 145 142 126 114 114 111 110 87 53
255 255 248 243 235 237 242 241 240 245 253 257 261 262 301 286 198 179 179 174 177 172 168 170 171 166 165 165 165 163 162 161 161 159 153 146 141 132 135 145 144 139 121 42
240 242 249 244 233 239 239 237 236 237 243 255 259 266 270 243 201 193 192 192 189 179 171 168 168 170 169 168 166 165 161 158 160 158 151 145 148 149 152 158 151 165 150 99
254 253 255 252 230 237 229 261 240 227 243 257 266 280 276 277 240 199 188 187 192 179 169 168 170 169 167 164 161 164 155 155 159 156 149 150 155 156 153 154 157 170 155 104
238 247 250 250 240 236 200 194 231 232 225 252 253 250 243 224 195 168 146 177 179 165 160 164 169 161 156 157 157 159 160 159 161 160 159 159 161 160 156 156 159 156 150 124
202 236 248 242 248 247 179 121 225 239 215 126 251 233 222 219 228 122 88 143 146 141 143 150 151 148 149 152 156 162 164 163 163 161 158 155 156 159 154 145 148 142 160 155
201 215 237 245 247 247 58 108 217 233 123 76 11 272 238 253 335 48 87 104 125 125 127 131 134 139 147 153 160 168 164 163 159 150 149 152 153 156 147 143 147 156 163 130
234 227 225 238 241 220 54 189 244 23 44 46 22 353 356 50 58 94 110 112 123 128 129 130 131 133 139 152 161 163 158 151 149 147 150 151 156 163 142 150 154 163 179 177
247 280 275 272 309 50 34 20 27 2 331 351 348 355 40 104 105 105 122 120 123 128 128 131 131 132 138 153 164 160 152 153 153 152 153 154 156 155 153 159 162 177 188 225
210 271 259 250 187 42 39 15 358 339 321 320 331 327 131 126 123 126 131 137 135 135 136 137 137 139 142 154 160 156 156 158 154 154 155 159 164 165 156 170 174 186 179 226
277 241 241 240 252 251 218 13 354 341 328 318 0 162 184 149 149 142 140 140 143 146 143 143 145 146 142 146 154 157 155 156 154 154 160 166 167 158 154 151 109 193 96 13
245 249 252 255 233 264 287 318 319 320 322 308 265 230 186 169 159 153 145 140 147 152 148 151 152 148 143 144 150 155 155 157 161 163 169 174 171 163 173 165 152 115 87 130